User: anonymous   Login
Location: Theydon Bois
(51.6750°N, 0.1050°E)
Time: 12:56:48
(UTC+00:00)
Language:

Cosmos 2218 Rocket - Orbit

View from above orbital plane
View from above orbital plane
View from above satellite
View from above satellite

Ground track
Ground track

The orbit data is extracted from the following two-line orbital elements,

1 22208U 92073B   17349.87623052 +.00000017 +00000-0 +22827-5 0  9996
2 22208 082.9196 247.7210 0032982 250.5043 160.9724 13.75140046260713
Epoch (UTC): 15 December 2017 21:01:46
Eccentricity: 0.0032982
inclination: 82.9196°
perigee height: 957 km
apogee height: 1005 km
right ascension of ascending node: 247.7210°
argument of perigee: 250.5043°
revolutions per day: 13.75140046
mean anomaly at epoch: 160.9724°
orbit number at epoch: 26071

The dashed part of the orbit path shows where the satellite is in the earth's shadow,  

DLR